Location: Unspecified
(41.9031°N, 12.4386°E)
Time: 05:56:45
(UTC+02:00)

ISS - Pass Details

Date: 30 March 2020
Orbit: 417 x 423 km, 51.6° (Epoch: 29 March)

Event Time Altitude Azimuth Distance (km) Brightness Sun altitude
Rises 22:33:21 0° 304° (NW) 2,362 1.2 -31.2°
Reaches altitude 10° 22:35:27 10° 305° (NW) 1,496 -0.1 -31.4°
Enters shadow 22:35:41 12° 305° (NW) 1,398 -0.3 -31.5°
